Weather History for Diyarbakir, Turkey

Change the Weather History Date:

Saturday, August 24, 2013

  Actual Average Record
Temperature  
Mean Temperature 78 °F -  
Max Temperature 93 °F 94 °F 105 °F (2010)
Min Temperature 64 °F 64 °F 64 °F (2013)
Cooling Degree Days 14    
Growing Degree Days 28 (Base 50)    
Moisture  
Dew Point 48 °F    
Average Humidity 31    
Maximum Humidity 52    
Minimum Humidity 12    
Precipitation  
Precipitation 0.00 in 0.00 in - ()
Sea Level Pressure  
Sea Level Pressure 29.72 in    
Wind  
Wind Speed 6 mph ()    
Max Wind Speed 17 mph    
Max Gust Speed -    
Visibility 7.0 miles    
Events      
Averages and records for this station are not official NWS values.
T = Trace of Precipitation, MM = Missing Value Source: Averaged Metar Reports

Daily Weather History Graph

Daily Weather History Graph

Search for Another Location

Airport:

Trip Planner

Search our weather history database for the weather conditions in past years. The results will help you decide how hot, cold, wet, or windy it might be!

Date:

Astronomy

Aug. 24, 2013 Rise Set
Actual Time 5:42 AM EEST 7:00 PM EEST
Civil Twilight 5:14 AM EEST 7:27 PM EEST
Nautical Twilight 4:42 AM EEST 8:00 PM EEST
Astronomical Twilight 4:07 AM EEST 8:34 PM EEST
Moon 8:46 PM EEST (8/24) 9:14 AM EEST (8/24)
Length of Visible Light 14h 12m
Length of Day
13h 18m
Waning Gibbous, 86% of the Moon is Illuminated
Aug 24
Waning Gibbous
Aug 28
Last Quarter
Sep 5
New
Sep 12
First Quarter
Sep 19
Full

Hourly Weather History & Observations

Time (EEST) Temp. Heat Index Dew Point Humidity Pressure Visibility Wind Dir Wind Speed Gust Speed Precip Events Conditions
12:20 AM 77.0 °F - 42.8 °F 29% 29.77 in - Variable 3.5 mph - N/A   Clear
12:50 AM 73.4 °F - 42.8 °F 33% 29.77 in - East 4.6 mph - N/A   Clear
1:20 AM 73.4 °F - 42.8 °F 33% 29.77 in - NE 5.8 mph - N/A   Clear
1:50 AM 75.2 °F - 42.8 °F 31% 29.74 in - ENE 5.8 mph - N/A   Clear
2:20 AM 71.6 °F - 42.8 °F 35% 29.77 in - Variable 2.3 mph - N/A   Clear
2:50 AM 71.6 °F - 44.6 °F 38% 29.77 in - East 5.8 mph - N/A   Clear
3:00 AM 72 °F - 44 °F 26% 29.61 in 6 mi East 5.8 mph - -  
3:20 AM 71.6 °F - 46.4 °F 41% 29.77 in - East 4.6 mph - N/A   Clear
4:20 AM 68.0 °F - 46.4 °F 46% 29.77 in - Variable 1.2 mph - N/A   Clear
4:50 AM 68.0 °F - 48.2 °F 49% 29.77 in - Variable 2.3 mph - N/A   Clear
5:20 AM 66.2 °F - 48.2 °F 52% 29.77 in - SE 2.3 mph - N/A   Clear
5:50 AM 66.2 °F - 46.4 °F 49% 29.77 in - Variable 2.3 mph - N/A   Clear
6:20 AM 66.2 °F - 46.4 °F 49% 29.77 in - North 1.2 mph - N/A   Clear
6:50 AM 71.6 °F - 50.0 °F 46% 29.77 in - East 3.5 mph - N/A   Clear
7:20 AM 73.4 °F - 48.2 °F 41% 29.77 in - Variable 2.3 mph - N/A   Clear
7:50 AM 75.2 °F - 46.4 °F 36% 29.77 in - East 3.5 mph - N/A   Clear
8:20 AM 77.0 °F - 50.0 °F 39% 29.77 in - ENE 4.6 mph - N/A   Clear
8:50 AM 80.6 °F - 48.2 °F 32% 29.77 in - East 5.8 mph - N/A   Clear
9:00 AM 80 °F - 48 °F 22% 29.62 in 12 mi East 5.8 mph - -  
9:20 AM 82.4 °F - 50.0 °F 32% 29.77 in - East 5.8 mph - N/A   Clear
9:50 AM 82.4 °F - 50.0 °F 32% 29.77 in - ENE 5.8 mph - N/A   Clear
10:20 AM 86.0 °F - 51.8 °F 31% 29.74 in - Variable 3.5 mph - N/A   Clear
10:50 AM 87.8 °F - 48.2 °F 25% 29.74 in - Variable 4.6 mph - N/A   Clear
11:20 AM 89.6 °F - 48.2 °F 24% 29.74 in - SSW 6.9 mph - N/A   Clear
11:50 AM 89.6 °F - 48.2 °F 24% 29.74 in - Variable 8.1 mph - N/A   Clear
12:20 PM 91.4 °F - 46.4 °F 21% 29.74 in - SSE 8.1 mph - N/A   Clear
12:50 PM 91.4 °F - 42.8 °F 18% 29.71 in - SSE 9.2 mph - N/A   Clear
1:20 PM 93.2 °F - 50.0 °F 23% 29.71 in - South 13.8 mph - N/A   Clear
1:50 PM 93.2 °F - 50.0 °F 23% 29.71 in - Variable 8.1 mph - N/A   Clear
2:20 PM 93.2 °F - 48.2 °F 21% 29.71 in - SSE 13.8 mph - N/A   Clear
2:50 PM 93.2 °F - 48.2 °F 21% 29.68 in - South 11.5 mph - N/A   Clear
3:00 PM 93 °F - 47 °F 12% 29.55 in 12 mi South 11.5 mph - -  
3:20 PM 93.2 °F - 48.2 °F 21% 29.68 in - SSE 13.8 mph - N/A   Clear
3:50 PM 93.2 °F - 48.2 °F 21% 29.68 in - South 13.8 mph - N/A   Clear
4:20 PM 93.2 °F - 46.4 °F 20% 29.68 in - SSE 12.7 mph - N/A   Clear
4:50 PM 93.2 °F - 48.2 °F 21% 29.68 in 6.2 mi SSE 15.0 mph - N/A   Partly Cloudy
5:20 PM 91.4 °F - 48.2 °F 23% 29.68 in 6.2 mi SSE 15.0 mph - N/A   Partly Cloudy
5:50 PM 91.4 °F - 48.2 °F 23% 29.68 in 6.2 mi SSE 17.3 mph - N/A   Partly Cloudy
6:20 PM 89.6 °F - 50.0 °F 26% 29.68 in 6.2 mi SSE 16.1 mph - N/A   Partly Cloudy
6:50 PM 87.8 °F - 50.0 °F 27% 29.68 in 6.2 mi South 15.0 mph - N/A   Partly Cloudy
7:20 PM 87.8 °F - 48.2 °F 25% 29.71 in 6.2 mi South 11.5 mph - N/A   Partly Cloudy
7:50 PM 86.0 °F - 48.2 °F 27% 29.71 in 6.2 mi SSE 9.2 mph - N/A   Partly Cloudy
8:20 PM 86.0 °F - 51.8 °F 31% 29.71 in 6.2 mi SSW 6.9 mph - N/A   Partly Cloudy
8:50 PM 86.0 °F 84.2 °F 53.6 °F 33% 29.71 in 6.2 mi SSW 8.1 mph - N/A   Partly Cloudy
9:20 PM 86.0 °F - 51.8 °F 31% 29.71 in 6.2 mi SSW 9.2 mph - N/A   Partly Cloudy
9:50 PM 84.2 °F 82.8 °F 53.6 °F 35% 29.71 in 6.2 mi SSW 9.2 mph - N/A   Partly Cloudy
10:20 PM 82.4 °F 81.7 °F 55.4 °F 39% 29.71 in - SW 6.9 mph - N/A   Clear
10:50 PM 80.6 °F 80.3 °F 53.6 °F 39% 29.71 in - WNW 4.6 mph - N/A   Clear
11:20 PM 80.6 °F 80.5 °F 55.4 °F 42% 29.71 in - ENE 4.6 mph - N/A   Clear
11:50 PM 77.0 °F - 53.6 °F 44% 29.71 in - East 2.3 mph - N/A   Clear